Regional Weather Roundup
Issued by NWS

Home | Current Version | Previous Version | Text Only | Print | Product List | Glossary On
Versions: 1 2 3 4 5 6 7 8 9 10 11 12 13 14 15 16 17 18 19 20 21 22 23 24 25 26 27 28
000
ASUS44 KJAN 230110
RWRMS

MISSISSIPPI HOURLY WEATHER ROUNDUP
NATIONAL WEATHER SERVICE JACKSON MS
800 PM CDT SUN APR 22 2018

NOTE: "FAIR: INDICATES FEW OR NO CLOUDS BELOW 12,000 FEET WITH NO
SIGNIFICANT WEATHER AND/OR OBSTRUCTIONS TO VISIBILITY.

MSZ001>002-007>008-010>013-018>021-025>028-034>036-230200-
NORTHWEST MISSISSIPPI

CITY           SKY/WX    TMP DP  RH WIND       PRES   REMARKS
BATESVILLE       N/A    N/A N/A N/A MISG        N/A
CLARKSDALE     CLOUDY    66  64  94 W8        29.84R
CLEVELAND      FAIR      65  61  86 NW3       29.83S
GREENWOOD      MOCLDY    62  60  93 CALM      29.84R
GREENVILLE     CLOUDY    65  57  75 W9        29.84R
OLIVE BRANCH   MOCLDY    61  61 100 CALM      29.83S
TUNICA         DRIZZLE   61  59  94 CALM      29.84R
WINONA         CLOUDY    61  61 100 CALM      29.84R
$$

MSZ003>006-009-014>017-022>024-029>033-037>039-230200-
NORTHEAST MISSISSIPPI

CITY           SKY/WX    TMP DP  RH WIND       PRES   REMARKS
ABERDEEN       DRIZZLE   61  61 100 N8G14     29.78S
COLUMBUS AFB   CLOUDY    61  61 100 N10       29.75R
CORINTH        RAIN      61  59  94 NW6       29.83R
GOLDN TRIANGLE FAIR      61  61 100 VRB6      29.80R
STARKVILLE     MOCLDY    59  59 100 W6        29.82R
TUPELO         CLOUDY    61  58  90 N14       29.78F
$$

MSZ040-058-230200-
CENTRAL MISSISSIPPI

CITY           SKY/WX    TMP DP  RH WIND       PRES   REMARKS
JACKSON INTL   MOCLDY    63  60  90 W5        29.86R
JACKSON HAWKNS MOCLDY    63  60  90 W7        29.87R
MADISON        FAIR      61  59  94 CALM      29.86R
MERIDIAN KEY   CLOUDY    65  61  87 SW5       29.84R
MERIDIAN NAS   CLOUDY    64  61  90 W10       29.84R
RAYMOND        CLOUDY    64  61  88 MISG      29.87R
VICKSBURG VKS  MOCLDY    64  57  77 VRB6      29.90R
$$

MSZ059>079-230200-
SOUTH MISSISSIPPI

CITY           SKY/WX    TMP DP  RH WIND       PRES   REMARKS
COLUMBIA       MOCLDY    66  63  88 N5        29.91R
HATTIESBURG    FAIR      66  63  90 CALM      29.88R
LAUREL         FAIR      62  62 100 CALM      29.88R
MCCOMB         FAIR      66  58  75 NW9G17    29.89R
NATCHEZ        MOCLDY    63  55  77 W10       29.93R
PINE BELT      FAIR      62  61  96 CALM      29.88R
$$

MSZ080>082-230200-
COASTAL MISSISSIPPI

CITY           SKY/WX    TMP DP  RH WIND       PRES   REMARKS
BAY ST LOUIS   PTCLDY    68  63  83 CALM      29.86R
BILOXI         FAIR      70  63  78 CALM      29.85R
PASCAGOULA     FAIR      67  64  90 CALM      29.87R FOG
GULFPORT       FAIR      70  63  78 W3        29.85R
$$

LAZ007>009-015>016-023>026-230200-
NORTHEAST LOUISIANA

CITY           SKY/WX    TMP DP  RH WIND       PRES   REMARKS
BASTROP        CLOUDY    59  53  79 W13       29.92R
TALLULAH/VBURG MOCLDY    64  58  80 W8G17     29.89R
VIDALIA        CLOUDY    62  55  78 W18       29.93R
$$




USA.gov is the U.S. government's official web portal to all federal, state and local government web resources and services.